This demonstration page uses our WeatherBlox Daily Observations layout. Learn more.

Left ArrowRight Arrow

39.51506, -84.39828

Hourly Observations for December 16, 2018

Temp ( °F °C ) Dew Point ( °F °C ) Humidity (%) Winds ( mph kmh ) Pressure ( in mb ) Visibility ( mi km ) Precip ( " mm )
12:15 am 00:15 Cloudy 41 4.9 39 4 94 94 N 8 13 29.94 1014 7 11 0.00 0.00
12:35 am 00:35 Cloudy 41 5 39 4 93 93 N 12 19 29.94 1014 7 11 0.00 0.00
12:55 am 00:55 Cloudy 41 5 39 4.1 94 94 N 8 13 29.94 1014 7 11 0.00 0.00
1:15 am 01:15 Cloudy with Mist and Fog 41 5.1 40 4.2 94 94 N 8 13 29.97 1015 5 8 0.00 0.00
1:35 am 01:35 Cloudy with Drizzle 41 5 40 4.3 95 95 N 8 13 29.97 1015 3 4 0.00 0.00
1:55 am 01:55 Cloudy with Drizzle 41 4.9 40 4.4 97 97 N 8 13 29.97 1015 2 3 0.00 0.00
2:15 am 02:15 Cloudy with Drizzle 41 4.9 40 4.4 97 97 N 7 11 29.97 1015 3 4 0.00 0.00
2:35 am 02:35 Cloudy with Drizzle 41 4.9 40 4.3 96 96 N 6 9 29.97 1015 3 5 0.00 0.00
2:55 am 02:55 Cloudy with Drizzle 41 4.9 40 4.3 96 96 N 7 11 29.97 1015 4 6 0.00 0.00
3:15 am 03:15 Cloudy with Mist and Fog 41 4.9 40 4.2 95 95 N 9 15 29.97 1015 5 8 0.00 0.00
3:35 am 03:35 Cloudy 41 5 39 4.1 94 94 N 6 9 29.97 1015 7 11 0.00 0.00
3:55 am 03:55 Cloudy 41 4.9 39 4.1 95 95 N 7 11 29.97 1015 7 11 0.00 0.00
4:15 am 04:15 Cloudy 41 5 39 4 93 93 N 7 11 29.97 1015 10 16 0.00 0.00
4:35 am 04:35 Cloudy 41 5 39 3.9 93 93 NNW 6 9 29.97 1015 10 16 0.00 0.00
4:55 am 04:55 Cloudy 41 4.9 39 3.8 93 93 NNW 7 11 30.00 1016 10 16 0.00 0.00
5:15 am 05:15 Cloudy 40 4.7 39 3.8 94 94 NNW 5 7 30.00 1016 10 16 0.00 0.00
5:35 am 05:35 Cloudy 40 4.7 38 3.6 93 93 NW 6 9 30.00 1016 10 16 0.00 0.00
5:55 am 05:55 Cloudy 40 4.6 38 3.6 93 93 NW 7 11 30.00 1016 10 16 0.00 0.00
6:15 am 06:15 Cloudy 40 4.5 38 3.3 92 92 NNW 9 15 30.03 1017 7 11 0.00 0.00
6:35 am 06:35 Cloudy with Mist and Fog 39 4 38 3.1 94 94 NNW 12 19 30.03 1017 3 4 0.00 0.00
6:55 am 06:55 Cloudy with Mist and Fog 39 3.7 37 2.9 95 95 NNW 8 13 30.06 1018 3 4 0.00 0.00
7:15 am 07:15 Cloudy with Mist and Fog 38 3.6 37 2.8 95 95 NW 7 11 30.06 1018 5 8 0.00 0.00
7:35 am 07:35 Cloudy with Mist and Fog 38 3.4 37 2.6 95 95 NNW 12 19 30.09 1019 4 6 0.00 0.00
7:55 am 07:55 Cloudy with Mist and Fog 38 3.3 37 2.6 95 95 NNW 9 15 30.09 1019 2 3 0.00 0.00
8:15 am 08:15 Cloudy with Mist and Fog 38 3.3 37 2.7 96 96 N 9 15 30.09 1019 3 4 0.00 0.00
8:35 am 08:35 Cloudy with Mist and Fog 38 3.3 37 2.7 96 96 N 10 17 30.09 1019 3 4 0.00 0.00
8:55 am 08:55 Cloudy with Mist and Fog 38 3.5 37 2.8 95 95 N 9 15 30.09 1019 3 4 0.00 0.00
9:15 am 09:15 Cloudy with Mist and Fog 38 3.6 37 2.8 95 95 NNW 8 13 30.09 1019 3 4 0.00 0.00
9:35 am 09:35 Cloudy with Mist and Fog 39 3.8 37 3 95 95 NNW 7 11 30.12 1020 3 5 0.00 0.00
9:55 am 09:55 Cloudy with Mist and Fog 39 4 37 3 93 93 NNW 7 11 30.12 1020 3 5 0.00 0.00
10:15 am 10:15 Cloudy with Mist and Fog 40 4.4 38 3.2 92 92 NNW 5 7 30.09 1019 4 6 0.00 0.00
10:35 am 10:35 Cloudy with Mist and Fog 40 4.6 38 3.2 91 91 N 3 6 30.09 1019 4 6 0.00 0.00
10:55 am 10:55 Cloudy with Mist and Fog 41 4.8 38 3.5 91 91 WNW 7 11 30.12 1020 4 6 0.00 0.00
11:15 am 11:15 Cloudy with Mist and Fog 41 5.1 38 3.5 90 90 NNW 5 7 30.09 1019 5 8 0.00 0.00
11:35 am 11:35 Cloudy with Mist and Fog 42 5.3 39 4 91 91 N 3 6 30.09 1019 4 6 0.00 0.00
11:55 am 11:55 Cloudy with Mist and Fog 41 5.2 39 3.7 90 90 Calm 30.06 1018 4 6 0.00 0.00
12:15 pm 12:15 Cloudy with Mist and Fog 42 5.6 39 4.1 90 90 NW 3 6 30.06 1018 4 6 0.00 0.00
12:35 pm 12:35 Cloudy with Mist and Fog 43 6 40 4.6 91 91 WNW 3 6 30.06 1018 4 6 0.00 0.00
12:55 pm 12:55 Cloudy with Mist and Fog 44 6.4 41 4.8 90 90 WNW 3 6 30.06 1018 4 6 0.00 0.00
1:15 pm 13:15 Cloudy with Mist and Fog 44 6.7 41 5 89 89 W 5 7 30.06 1018 5 8 0.00 0.00
1:35 pm 13:35 Cloudy with Mist and Fog 44 6.9 41 5.1 88 88 W 5 7 30.06 1018 4 6 0.00 0.00
1:55 pm 13:55 Cloudy with Mist and Fog 45 7.3 42 5.4 88 88 W 7 11 30.06 1018 5 8 0.00 0.00
2:15 pm 14:15 Cloudy with Mist and Fog 46 7.5 42 5.4 87 87 WNW 8 13 30.06 1018 5 8 0.00 0.00
2:35 pm 14:35 Cloudy with Mist and Fog 46 7.6 42 5.6 87 87 WSW 7 11 30.06 1018 5 8 0.00 0.00
2:55 pm 14:55 Cloudy with Mist and Fog 46 7.8 42 5.7 87 87 WNW 6 9 30.06 1018 7 11 0.00 0.00
3:15 pm 15:15 Cloudy with Mist and Fog 46 7.9 42 5.8 87 87 S 3 6 30.06 1018 7 11 0.00 0.00
3:35 pm 15:35 Cloudy with Mist and Fog 47 8.2 43 6 86 86 S 3 6 30.06 1018 7 11 0.00 0.00
3:55 pm 15:55 Cloudy with Mist and Fog 47 8.2 43 6 86 86 SW 6 9 30.06 1018 7 11 0.00 0.00
4:15 pm 16:15 Cloudy with Mist and Fog 47 8.1 43 6.1 87 87 SW 6 9 30.06 1018 7 11 0.00 0.00
4:35 pm 16:35 Cloudy with Mist and Fog 47 8.3 43 6.2 87 87 SW 7 11 30.09 1019 7 11 0.00 0.00
4:55 pm 16:55 Partly Cloudy 46 8 42 5.7 86 86 W 7 11 30.09 1019 10 16 0.00 0.00
5:15 pm 17:15 Mostly Cloudy 45 7.2 42 5.4 88 88 SW 3 6 30.09 1019 10 16 0.00 0.00
5:35 pm 17:35 Partly Cloudy 44 6.6 41 5.2 91 91 W 3 6 30.09 1019 10 16 0.00 0.00
5:55 pm 17:55 Clear 42 5.7 41 5 95 95 W 5 7 30.09 1019 10 16 0.00 0.00
6:15 pm 18:15 Clear with Mist and Fog 40 4.6 40 4.2 97 97 SSW 7 11 30.15 1021 4 6 0.00 0.00
6:35 pm 18:35 Clear 40 4.6 39 4.1 97 97 SSW 7 11 30.15 1021 7 11 0.00 0.00
6:55 pm 18:55 Mostly Cloudy with Mist and Fog 37 2.5 36 2 97 97 SW 3 6 30.12 1020 1 1 0.00 0.00
7:15 pm 19:15 Mostly Cloudy with Mist and Fog 38 3.4 38 3.2 99 99 SW 3 6 30.15 1021 1 2 0.00 0.00
7:35 pm 19:35 Mostly Cloudy with Mist and Fog 37 2.7 37 2.6 99 99 SW 3 6 30.15 1021 1 1 0.00 0.00
7:55 pm 19:55 Mostly Cloudy with Fog 36 2.2 36 2 99 99 SW 3 6 30.15 1021 1 1 0.00 0.00
8:15 pm 20:15 Mostly Cloudy with Fog 38 3.1 37 3 99 99 Calm 30.15 1021 0 0 0.00 0.00
8:35 pm 20:35 Cloudy with Fog 37 2.7 37 2.5 99 99 SW 3 6 30.15 1021 1 1 0.00 0.00
8:55 pm 20:55 Cloudy with Mist and Fog 38 3.4 38 3.3 99 99 SW 3 6 30.15 1021 2 3 0.00 0.00
9:15 pm 21:15 Cloudy with Mist and Fog 41 4.9 41 4.8 99 99 WSW 7 11 30.12 1020 4 6 0.00 0.00
9:35 pm 21:35 Cloudy with Mist and Fog 40 4.7 40 4.6 99 99 SW 6 9 30.18 1022 4 6 0.00 0.00
9:55 pm 21:55 Cloudy with Mist and Fog 40 4.6 40 4.5 99 99 SSW 6 9 30.15 1021 2 3 0.00 0.00
10:15 pm 22:15 Cloudy with Mist and Fog 40 4.3 40 4.2 99 99 SW 6 9 30.15 1021 3 4 0.00 0.00
10:35 pm 22:35 Cloudy with Mist and Fog 40 4.3 39 4.1 99 99 SW 6 9 30.15 1021 2 2 0.00 0.00
10:55 pm 22:55 Cloudy with Mist and Fog 39 4.1 39 4 99 99 SW 6 9 30.15 1021 2 2 0.00 0.00
11:15 pm 23:15 Cloudy with Fog 40 4.2 39 4.1 99 99 SW 5 7 30.15 1021 0 0 0.00 0.00
11:35 pm 23:35 Cloudy with Fog 40 4.2 39 4.1 99 99 SSW 3 6 30.15 1021 0 0 0.00 0.00
11:55 pm 23:55 Cloudy with Fog 38 3.6 38 3.5 99 99 SSW 3 6 30.15 1021 0 0 0.00 0.00

Powered by AerisWeather